Regional Weather Roundup
Issued by NWS Wilmington, NC

Home | Current Version | Previous Version | Text Only | Print | Product List | Glossary On
Versions: 1 2 3 4 5 6 7 8 9 10 11 12 13 14 15 16 17 18 19 20 21 22 23 24 25 26 27 28 29 30 31 32 33 34 35 36 37 38 39 40 41 42 43 44 45 46 47 48 49 50
000
ASUS42 KILM 280213
RWRILM
RWRILM
REGIONAL HOURLY WEATHER ROUNDUP
NATIONAL WEATHER SERVICE WILMINGTON NC
1000 PM EDT THU AUG 27 2015

NOTE: "FAIR" INDICATES FEW OR NO CLOUDS BELOW 12,000 FEET WITH NO
SIGNIFICANT WEATHER AND/OR OBSTRUCTIONS TO VISIBILITY.

...............WFO WILMINGTON COUNTY WARNING AREA...............

......COASTAL NC AND SC COUNTIES......

CITY           SKY/WX    TMP DP  RH WIND       PRES   REMARKS
WILMINGTON     CLOUDY    74  68  81 NE9       30.07R
N MYRTLE BEACH CLOUDY    74  71  91 NE7       30.05R
MYRTLE BEACH   MOCLDY    75  68  78 N8        30.07R

......INLAND NC AND SC COUNTIES.......

CITY           SKY/WX    TMP DP  RH WIND       PRES   REMARKS
LUMBERTON      MOCLDY    74  64  71 NE7       30.07R
ELIZABETHTOWN  MOCLDY    72  64  74 CALM      30.08R
WHITEVILLE     MOCLDY    72  67  84 N3        30.07R
FLORENCE       MOCLDY    74  68  81 NE9       30.07R
DARLINGTON     MOCLDY    73  64  73 NE7       30.09R

....................REST OF NORTH CAROLINA......................

.........EASTERN NC.........

CITY           SKY/WX    TMP DP  RH WIND       PRES   REMARKS
CAPE HATTERAS  CLOUDY    71  69  93 NE6       30.08R
JACKSONVILLE   MOCLDY    70  63  78 N8        30.08S
MOREHEAD CITY  CLOUDY    71  71 100 NE8       30.08R
KENANSVILLE      N/A     70  64  81 CALM      30.10S
NEW BERN       PTCLDY    71  63  75 NE8       30.10R
ELIZABETH CITY CLOUDY    73  62  68 NE8       30.11R

.........CENTRAL NC.........

CITY           SKY/WX    TMP DP  RH WIND       PRES   REMARKS
RALEIGH DURHAM PTCLDY    71  59  65 E5        30.12R
ROCKY MOUNT    MOCLDY    68  63  84 CALM      30.11R
ROANOKE RAPIDS NOT AVBL
FAYETTEVILLE   MOCLDY    70  64  81 NE3       30.09R
HOFFMAN        PTCLDY    73  63  72 E3        30.09R

.........WESTERN NC.........

CITY           SKY/WX    TMP DP  RH WIND       PRES   REMARKS
CHARLOTTE      PTCLDY    77  59  53 E7        30.10R
GREENSBORO     PTCLDY    72  59  63 CALM      30.12R
HICKORY        NOT AVBL
BOONE          NOT AVBL
ASHEVILLE      NOT AVBL

.....................REST OF SOUTH CAROLINA.....................

.........EASTERN SC.........

CITY           SKY/WX    TMP DP  RH WIND       PRES   REMARKS
CHARLESTON     PTCLDY    74  70  87 NE3       30.03R
BEAUFORT MCAS  MOCLDY    79  73  82 NE6       30.01S
HILTON HEAD    MOCLDY    79  73  83 N5        30.02S

.........CENTRAL SC.........

CITY           SKY/WX    TMP DP  RH WIND       PRES   REMARKS
COLUMBIA       PTCLDY    80  68  66 E8        30.05R
ORANGEBURG     MOCLDY    77  69  76 E6        30.05R
SUMTER SHAW    PTCLDY    75  67  76 E9        30.05R

.........WESTERN SC.........

CITY           SKY/WX    TMP DP  RH WIND       PRES   REMARKS
GREENVILLE     NOT AVBL
ROCK HILL      PTCLDY    73  63  70 CALM      30.10R
ANDERSON       MOCLDY    75  63  66 NE6       30.08R
CLEMSON        NOT AVBL
GREENWOOD      MOCLDY    74  66  76 NE3       30.09R


...................COASTAL AND OFFSHORE REPORTS..................

................LOCAL PIERS AND NC RESERVE................


STATION/POSITION TIME  SKY/WX   TEMP    WIND        PRES    VSBY
                                AIR SEA DIR/SP/G
                 (UTC)          (F)     (DEG/KT/KT) (MB)    (MI)
JOHNY MRCER PIER 0100            76 84   20/ 14/ 17 1016.9R
NC RESRV MASNBRO NOT AVBL
OCEAN CREST PIER NOT AVBL
SPRINGMAID  PIER 0100            76 84  360/ 11/ 14 1016.8R


................COASTAL AND OFFSHORE BUOYS................


STATION/POSITION TIME  SKY/WX   TEMP    WIND        PRES    VSBY
                                AIR SEA DIR/SP/G
                 (UTC)          (F)     (DEG/KT/KT) (MB)    (MI)
DIMNDSHOAL 41025 0150            77 81   30/ 12/ 14 1018.1R
WVE H/P(F/S)=  4/ 9 WND WVE H/P(F/S)=  2/ 5 SWL H/P/D(F/S/D)=  3/ 90/ 9

CAPE LOOKOUT     0200            75      20/  8/ 10 1017.8R
ONSLOW BAY 41036 NOT AVBL
ONSLOW BAY 41064 0108            78 82   60/ 12/ 17 1017.3R
ONSLOW BAY 41159 0125               82                N/A
WVE H/P(F/S)=  4/ 5 WND WVE H/P(F/S)=  3/ 5 SWL H/P/D(F/S/D)=  2/120/11

5SE WRITBC 41038 0108            79 82   60/ 21/ 25 1016.8R
MASNBO INL 41110 0119               82                N/A
WVE H/P(F/S)=  5/ 5 WND WVE H/P(F/S)=  5/ 5 SWL H/P/D(F/S/D)=  2/120/11

WILM HARBR 41108 0111               83                N/A
WVE H/P(F/S)=  4/ 5 WND WVE H/P(F/S)=  3/ 5 SWL H/P/D(F/S/D)=  2/170/11

27SE WRITB 41037 0100            76 82   90/ 10/ 12   N/A
FRYING PAN 41013 0150            81 81  100/ 10/ 12 1017.0R
SUNST NRSH 41024 0108            77      30/ 14/ 16 1017.1R
CAPRS NRSH 41029 0108            79      30/ 12/ 17 1016.3R
EDISTO     41004 0150            81 85   20/  6/  8 1016.2R
WVE H/P(F/S)=  2/10 WND WVE H/P(F/S)=  2/ 4 SWL H/P/D(F/S/D)=  2/10



..........OFFSHORE BUOYS BEYOND 100 NM OFFSHORE...........
.....IN A TRIANGLE---HAT TO BERMUDA TO BAHAMAS TO HAT.....


STATION/POSITION TIME  SKY/WX   TEMP    WIND        PRES    VSBY
                                AIR SEA DIR/SP/G
                 (UTC)          (F)     (DEG/KT/KT) (MB)    (MI)
150E HAT   41001 0100            79 82   60/  6/ 10 1017.4R
W BERMUDA  41048 0150            83 83  200/ 12/ 14 1018.3R
WVE H/P(F/S)=  4/11 WND WVE H/P(F/S)=  2/ 5 SWL H/P/D(F/S/D)=  3/100/11

ATLANTIC S 41049 0150            85 87  160/  2/  4 1020.4R
WVE H/P(F/S)=  6/11 SWL H/P/D(F/S/D)=  7/120/11

E BAHAMAS  41046 0150            85 86   80/ 16/ 19 1018.2R
WVE H/P(F/S)=  6/11 WND WVE H/P(F/S)=  5/ 6 SWL H/P/D(F/S/D)=  5/ 90/11

NE BAHAMAS 41047 0150            85 86  170/ 10/ 12 1018.4R
WVE H/P(F/S)=  4/ 8 WND WVE H/P(F/S)=  2/ 4 SWL H/P/D(F/S/D)=  3/120/ 8

120E CANVRL41010 0120            80 85  140/ 12/ 14 1015.0R

END



USA.gov is the U.S. government's official web portal to all federal, state and local government web resources and services.